EW5612 Weather Reports


Display with metric or nautical units.
time (UTC)temp
F
wind
direction
speed
MPH
gust
MPH
rain 1hr
in
rain 24hr
in
rain mn
in
humidity
%
barometer
mb
20260507065704 62 86 0.0 1.0 0.00 0.00 0.00 85 1014.3
20260507065204 62 28 0.0 1.0 0.00 0.00 0.00 85 1014.5
20260507064704 62 337 0.0 1.0 0.00 0.00 0.00 85 1014.4
20260507064204 62 26 0.0 0.0 0.00 0.00 0.00 85 1014.5
20260507063703 62 337 0.0 3.0 0.00 0.00 0.00 85 1013.5
20260507063203 62 45 0.0 3.0 0.00 0.00 0.00 85 1014.1
20260507062703 62 13 0.0 1.0 0.00 0.00 0.00 85 1014.1
20260507062203 62 166 0.0 2.0 0.00 0.00 0.00 85 1014.0
20260507061704 62 302 0.0 1.0 0.00 0.00 0.00 85 1014.3
20260507061203 62 52 0.0 2.0 0.00 0.00 0.00 85 1013.6
20260507060204 62 357 0.0 1.0 0.00 0.00 0.00 85 1013.6
20260507055704 62 328 0.0 0.0 0.00 0.00 0.00 85 1014.1
20260507055203 62 295 0.0 0.0 0.00 0.00 0.00 85 1014.0
20260507054204 62 5 0.0 2.0 0.00 0.00 0.00 85 1014.0
20260507053204 62 313 0.0 1.0 0.00 0.00 0.00 85 1013.9
20260507052203 62 321 0.0 1.0 0.00 0.00 0.00 85 1014.2
20260507051704 62 298 0.0 1.0 0.00 0.00 0.00 85 1014.2
20260507051204 62 19 0.0 1.0 0.00 0.00 0.00 85 1014.2
20260507050703 62 350 0.0 2.0 0.00 0.00 0.00 85 1014.0
20260507050203 62 334 0.0 1.0 0.00 0.00 0.00 85 1014.1
20260507045703 62 356 0.0 1.0 0.00 0.00 0.00 85 1014.1
20260507045204 62 18 0.0 1.0 0.00 0.00 0.00 85 1014.1
20260507044203 62 330 0.0 1.0 0.00 0.00 0.00 85 1013.9
20260507043704 62 332 0.0 2.0 0.00 0.00 0.00 85 1014.0
20260507043203 62 13 0.0 1.0 0.00 0.00 0.00 85 1013.9
20260507042204 62 351 0.0 3.0 0.00 0.00 0.00 85 1013.9
20260507041703 62 352 0.0 3.0 0.00 0.00 0.00 85 1013.7
20260507041203 62 349 0.0 2.0 0.00 0.00 0.00 85 1013.9
20260507040704 62 319 1.0 3.0 0.00 0.00 0.00 84 1014.0
20260507035703 62 307 0.0 3.0 0.00 0.00 0.00 84 1013.8
20260507035203 62 355 0.0 1.0 0.00 0.00 0.00 84 1014.0
20260507034704 62 319 0.0 5.0 0.00 0.00 0.00 84 1013.8
20260507034204 62 44 0.0 5.0 0.00 0.00 0.00 84 1013.7
20260507033703 63 58 0.0 1.0 0.00 0.00 0.00 84 1013.4
20260507033204 63 37 0.0 3.0 0.00 0.00 0.00 84 1013.4
20260507032704 63 341 0.0 8.0 0.00 0.00 0.00 84 1013.6
20260507032203 63 316 0.0 5.0 0.00 0.00 0.00 84 1013.7
20260507031703 63 153 0.0 1.0 0.00 0.00 0.00 84 1013.3
20260507030203 63 310 0.0 3.0 0.00 0.00 0.00 85 1013.9
20260507025704 63 168 0.0 1.0 0.00 0.00 0.00 85 1013.4
20260507024703 63 69 0.0 1.0 0.00 0.00 0.00 85 1013.0
20260507024203 63 41 0.0 1.0 0.00 0.00 0.00 85 1012.7
20260507023703 63 357 0.0 3.0 0.00 0.00 0.00 85 1012.6
20260507023203 63 3 0.0 2.0 0.00 0.00 0.00 85 1013.0
20260507022703 63 316 0.0 1.0 0.00 0.00 0.00 85 1012.6
20260507022204 63 306 0.0 1.0 0.00 0.00 0.00 84 1012.5
20260507021704 63 6 0.0 1.0 0.00 0.00 0.00 84 1012.3
20260507021204 63 10 0.0 0.0 0.00 0.00 0.00 84 1012.2
20260507020703 63 329 0.0 1.0 0.00 0.00 0.00 84 1013.1
20260507020203 63 339 0.0 0.0 0.00 0.00 0.00 84 1013.1
20260507015203 63 27 0.0 1.0 0.00 0.00 0.00 84 1011.9
20260507014703 63 90 0.0 3.0 0.00 0.00 0.00 84 1012.2
20260507014204 63 319 0.0 0.0 0.00 0.00 0.00 84 1012.0
20260507013203 63 41 0.0 0.0 0.00 0.00 0.00 84 1012.2
20260507012703 63 308 0.0 0.0 0.00 0.00 0.00 84 1011.9
20260507012203 63 67 0.0 2.0 0.00 0.00 0.00 84 1012.0
20260507011703 63 338 0.0 1.0 0.00 0.00 0.00 84 1011.8
20260507011203 63 354 0.0 0.0 0.00 0.00 0.00 84 1011.9
20260507010704 63 304 0.0 1.0 0.00 0.00 0.00 84 1011.6
20260507010203 63 339 0.0 3.0 0.00 0.00 0.00 84 1011.5
20260507005704 63 47 0.0 1.0 0.00 0.00 0.00 84 1011.3
20260507005204 63 352 0.0 1.0 0.00 0.00 0.00 83 1011.4
20260507004703 63 328 0.0 5.0 0.00 0.00 0.00 83 1011.3
20260507004203 63 312 1.0 5.0 0.00 0.00 0.00 83 1011.3
20260507003703 63 305 0.0 2.0 0.00 0.00 0.00 83 1011.1
20260507003203 63 8 1.0 5.0 0.00 0.00 0.00 83 1011.3
20260507002703 63 326 1.0 3.0 0.00 0.00 0.00 83 1011.2
20260507002203 63 272 0.0 0.0 0.00 0.00 0.00 83 1011.0
20260507001704 63 345 1.0 5.0 0.00 0.00 0.00 83 1011.1
20260507001203 64 10 1.0 3.0 0.00 0.00 0.00 83 1010.9
20260507000704 64 16 2.0 9.0 0.00 0.00 0.00 83 1011.1
20260507000205 64 4 2.0 8.0 0.00 0.00 0.00 82 1011.0
20260506235204 64 280 3.0 8.0 0.00 0.00 0.00 82 1010.9
20260506234704 64 334 2.0 8.0 0.00 0.00 0.00 82 1010.8
20260506234203 64 355 3.0 8.0 0.00 0.00 0.00 82 1010.8
20260506232703 64 302 3.0 9.0 0.00 0.00 0.00 81 1010.8
20260506232203 65 267 4.0 9.0 0.00 0.00 0.00 80 1010.8
20260506231703 65 287 4.0 10.0 0.00 0.00 0.00 80 1010.6
20260506231204 65 11 3.0 10.0 0.00 0.00 0.00 80 1010.6
20260506230703 65 349 2.0 9.0 0.00 0.00 0.00 80 1010.5
20260506225703 66 281 3.0 10.0 0.00 0.00 0.00 79 1010.4
20260506225204 66 345 3.0 8.0 0.00 0.00 0.00 79 1010.3
20260506224704 66 315 3.0 9.0 0.00 0.00 0.00 78 1010.3
20260506223704 67 327 3.0 10.0 0.00 0.00 0.00 78 1010.3
20260506223204 67 359 2.0 7.0 0.00 0.00 0.00 78 1010.3
20260506222204 68 343 3.0 8.0 0.00 0.00 0.00 77 1010.4
20260506221704 68 288 4.0 9.0 0.00 0.00 0.00 76 1010.2
20260506220703 69 12 3.0 9.0 0.00 0.00 0.00 76 1010.1
20260506220204 70 327 3.0 10.0 0.00 0.00 0.00 75 1010.0
20260506215704 70 329 4.0 9.0 0.00 0.00 0.00 76 1009.8
20260506215204 70 16 4.0 12.0 0.00 0.00 0.00 77 1009.9
20260506214704 70 303 3.0 10.0 0.00 0.00 0.00 76 1009.9
20260506214203 70 26 3.0 12.0 0.00 0.00 0.00 76 1009.7
20260506213204 71 335 2.0 10.0 0.00 0.00 0.00 78 1009.6
20260506212204 71 325 4.0 10.0 0.00 0.00 0.00 77 1009.9
20260506211703 71 347 5.0 10.0 0.00 0.00 0.00 77 1010.1
20260506211204 71 283 4.0 12.0 0.00 0.00 0.00 77 1010.1
20260506210704 72 333 5.0 10.0 0.00 0.00 0.00 76 1010.1
20260506210203 72 336 5.0 12.0 0.00 0.00 0.00 75 1010.1
20260506205703 73 333 4.0 9.0 0.00 0.00 0.00 76 1010.1
20260506205203 73 340 5.0 10.0 0.00 0.00 0.00 76 1009.9
20260506204203 74 65 3.0 9.0 0.00 0.00 0.00 76 1010.0
20260506203703 75 311 3.0 10.0 0.00 0.00 0.00 77 1009.9
20260506203204 75 302 1.0 12.0 0.00 0.00 0.00 77 1009.7
20260506202704 75 336 2.0 12.0 0.00 0.00 0.00 77 1009.7
20260506202204 76 30 1.0 5.0 0.00 0.00 0.00 78 1009.6
20260506201703 76 319 1.0 12.0 0.00 0.00 0.00 77 1009.5
20260506201204 77 344 2.0 8.0 0.00 0.00 0.00 77 1009.4
20260506200704 77 315 1.0 12.0 0.00 0.00 0.00 78 1009.4
20260506200204 77 301 1.0 8.0 0.00 0.00 0.00 77 1009.3
20260506195703 78 352 2.0 7.0 0.00 0.00 0.00 77 1009.3
20260506195204 78 268 0.0 6.0 0.00 0.00 0.00 78 1009.4
20260506194704 78 329 0.0 0.0 0.00 0.00 0.00 77 1009.6
20260506194203 78 302 1.0 3.0 0.00 0.00 0.00 77 1009.4
20260506193703 78 313 0.0 0.0 0.00 0.00 0.00 76 1009.5
20260506193204 78 296 0.0 2.0 0.00 0.00 0.00 78 1009.6
20260506192704 77 19 0.0 0.0 0.00 0.00 0.00 79 1009.5
20260506191704 77 314 0.0 0.0 0.00 0.00 0.00 78 1009.4
20260506191204 77 284 0.0 0.0 0.00 0.00 0.00 78 1009.4
20260506185703 75 330 0.0 0.0 0.00 0.00 0.00 80 1009.7
20260506184204 74 327 0.0 0.0 0.00 0.00 0.00 82 1009.6
20260506183704 73 352 1.0 3.0 0.00 0.00 0.00 83 1009.6
20260506183204 73 5 0.0 0.0 0.00 0.00 0.00 81 1009.6
20260506182704 72 308 0.0 5.0 0.00 0.00 0.00 83 1009.6
20260506182204 72 339 1.0 5.0 0.00 0.00 0.00 84 1009.7
20260506181704 71 322 0.0 0.0 0.00 0.00 0.00 86 1009.7
20260506181204 71 325 0.0 3.0 0.00 0.00 0.00 86 1009.8
20260506180703 70 22 1.0 5.0 0.00 0.00 0.00 86 1009.7
20260506180203 69 331 0.0 0.0 0.00 0.00 0.00 87 1009.8
20260506175204 68 4 0.0 0.0 0.00 0.00 0.00 88 1009.9
20260506174703 67 311 0.0 0.0 0.00 0.00 0.00 88 1009.9
20260506174204 67 17 0.0 0.0 0.00 0.00 0.00 88 1010.0
20260506173704 66 348 0.0 0.0 0.00 0.00 0.00 89 1010.0
20260506172703 65 315 0.0 0.0 0.00 0.00 0.00 88 1010.4
20260506171703 65 318 0.0 3.0 0.00 0.00 0.00 88 1010.7
20260506171203 65 281 1.0 7.0 0.00 0.00 0.00 88 1010.9
20260506170704 65 45 1.0 8.0 0.00 0.00 0.00 88 1011.1
20260506170204 66 4 1.0 10.0 0.00 0.00 0.00 87 1011.0
20260506165704 66 317 1.0 10.0 0.00 0.00 0.00 87 1011.0
20260506164704 68 352 2.0 12.0 0.00 0.00 0.00 86 1011.0
20260506163704 70 320 4.0 12.0 0.00 0.00 0.00 82 1011.0
20260506162704 75 302 4.0 10.0 0.00 0.00 0.00 80 1011.1
20260506162204 78 328 0.0 2.0 0.00 0.00 0.00 91 1010.8
20260506161704 77 0 0.0 0.0 0.00 0.00 0.00 91 1010.6
20260506161204 77 55 0.0 0.0 0.00 0.00 0.00 91 1010.6
20260506160203 77 60 0.0 0.0 0.00 0.00 0.00 92 1010.8
20260506155704 77 86 0.0 0.0 0.00 0.00 0.00 92 1010.6
20260506155204 77 91 0.0 0.0 0.00 0.00 0.00 92 1010.3
20260506154703 77 100 0.0 0.0 0.00 0.00 0.00 92 1010.2
20260506154203 77 100 0.0 0.0 0.00 0.00 0.00 92 1010.2
20260506153703 77 99 0.0 0.0 0.00 0.00 0.00 92 1009.9
20260506153204 77 106 0.0 0.0 0.00 0.00 0.00 92 1009.6
20260506152203 76 106 0.0 0.0 0.00 0.00 0.00 92 1009.6
20260506151704 76 106 0.0 0.0 0.00 0.00 0.00 92 1009.6
20260506151204 76 106 0.0 0.0 0.00 0.00 0.00 92 1009.3
20260506150704 76 106 0.0 0.0 0.00 0.00 0.00 92 1009.1
20260506150203 76 106 0.0 0.0 0.00 0.00 0.00 92 1009.1
20260506145203 76 106 0.0 0.0 0.00 0.00 0.00 93 1008.9
20260506144703 76 106 0.0 0.0 0.00 0.00 0.00 93 1008.9
20260506144204 76 106 0.0 0.0 0.00 0.00 0.00 93 1009.0
20260506143204 76 106 0.0 0.0 0.00 0.00 0.00 93 1009.1
20260506142704 76 106 0.0 0.0 0.00 0.00 0.00 93 1009.1
20260506141703 76 106 0.0 0.0 0.00 0.00 0.00 93 1009.2
20260506141203 76 106 0.0 0.0 0.00 0.00 0.00 93 1009.0
20260506135703 75 106 0.0 0.0 0.00 0.00 0.00 93 1008.3
20260506135203 75 106 0.0 0.0 0.00 0.00 0.00 93 1008.2
20260506134703 75 106 0.0 0.0 0.00 0.00 0.00 93 1008.1
20260506133703 75 189 0.0 0.0 0.00 0.00 0.00 93 1008.1
20260506133204 75 189 0.0 0.0 0.00 0.00 0.00 94 1008.1
20260506132203 75 189 0.0 0.0 0.00 0.00 0.00 93 1008.1
20260506130204 75 189 0.0 0.0 0.00 0.00 0.00 93 1008.1
20260506125704 75 189 0.0 0.0 0.00 0.00 0.00 93 1008.1
20260506124704 75 189 0.0 0.0 0.00 0.00 0.00 93 1008.2
20260506123704 75 189 0.0 0.0 0.00 0.00 0.00 93 1008.1
20260506123204 75 189 0.0 0.0 0.00 0.00 0.00 93 1008.1
20260506121703 75 189 0.0 0.0 0.00 0.00 0.00 93 1008.0
20260506121203 75 189 0.0 0.0 0.00 0.00 0.00 93 1008.1
20260506120704 75 189 0.0 0.0 0.00 0.00 0.00 93 1008.0
20260506120203 75 189 0.0 0.0 0.00 0.00 0.00 93 1008.1
20260506115204 75 189 0.0 0.0 0.00 0.00 0.00 92 1008.1
20260506114704 75 189 0.0 0.0 0.00 0.00 0.00 92 1008.0
20260506114204 75 189 0.0 0.0 0.00 0.00 0.00 92 1007.9
20260506113704 75 189 0.0 0.0 0.00 0.00 0.00 92 1007.8
20260506113203 75 189 0.0 0.0 0.00 0.00 0.00 92 1007.9
20260506112703 75 189 0.0 0.0 0.00 0.00 0.00 92 1007.9
20260506112203 75 189 0.0 0.0 0.00 0.00 0.00 92 1007.8
20260506111704 75 189 0.0 0.0 0.00 0.00 0.00 92 1007.7
20260506111203 75 189 0.0 0.0 0.00 0.00 0.00 92 1007.8
20260506110704 75 189 0.0 0.0 0.00 0.00 0.00 92 1007.7
20260506110204 75 189 0.0 0.0 0.00 0.00 0.00 92 1007.7
20260506105704 75 189 0.0 0.0 0.00 0.00 0.00 92 1007.7
20260506105204 75 189 0.0 0.0 0.00 0.00 0.00 92 1007.5
20260506104704 75 189 0.0 0.0 0.00 0.00 0.00 92 1007.5
20260506104203 75 189 0.0 0.0 0.00 0.00 0.00 92 1007.4
20260506103703 75 189 0.0 0.0 0.00 0.00 0.00 92 1007.4
20260506103203 75 189 0.0 0.0 0.00 0.00 0.00 92 1007.4
20260506102703 75 189 0.0 1.0 0.00 0.00 0.00 92 1007.5
20260506102204 75 189 0.0 3.0 0.00 0.00 0.00 92 1007.4
20260506101704 75 200 0.0 0.0 0.00 0.00 0.00 92 1007.3
20260506101203 75 200 0.0 2.0 0.00 0.00 0.00 92 1007.2
20260506100703 75 194 0.0 0.0 0.00 0.00 0.00 92 1007.1
20260506100204 75 194 0.0 1.0 0.00 0.00 0.00 92 1007.0
20260506095703 75 192 0.0 3.0 0.00 0.00 0.00 92 1007.0
20260506094703 75 198 0.0 2.0 0.00 0.00 0.00 92 1006.9
20260506093703 75 181 0.0 3.0 0.00 0.00 0.00 92 1006.8
20260506093204 75 183 1.0 3.0 0.00 0.00 0.00 92 1006.6
20260506092204 75 181 0.0 1.0 0.00 0.00 0.00 92 1006.7
20260506091204 75 181 0.0 1.0 0.00 0.00 0.00 91 1006.7
20260506090704 75 181 0.0 1.0 0.00 0.00 0.00 91 1006.7
20260506090203 75 181 0.0 0.0 0.00 0.00 0.00 91 1006.8
20260506085204 75 184 0.0 0.0 0.00 0.00 0.00 91 1006.7
20260506084704 75 179 0.0 2.0 0.00 0.00 0.00 91 1006.6
20260506083704 75 170 0.0 3.0 0.00 0.00 0.00 91 1006.7
20260506083203 75 177 0.0 2.0 0.00 0.00 0.00 91 1006.7
20260506082704 75 176 0.0 1.0 0.00 0.00 0.00 91 1006.7
20260506082204 75 175 0.0 0.0 0.00 0.00 0.00 91 1006.8
20260506081703 75 158 0.0 0.0 0.00 0.00 0.00 91 1006.7
20260506081204 75 151 0.0 1.0 0.00 0.00 0.00 91 1006.7
20260506080703 75 173 0.0 0.0 0.00 0.00 0.00 91 1006.8
20260506080203 75 171 0.0 3.0 0.00 0.00 0.00 91 1006.9
20260506072704 75 204 0.0 1.0 0.00 0.00 0.00 92 1007.1
20260506072203 75 195 0.0 0.0 0.00 0.00 0.00 92 1007.2
20260506071703 75 195 0.0 0.0 0.00 0.00 0.00 92 1007.2
20260506071204 75 195 0.0 2.0 0.00 0.00 0.00 92 1007.3
20260506070704 75 195 0.0 3.0 0.00 0.00 0.00 92 1007.3